星链-31356 (STARLINK-31356 )

导读

STARLINK-31356是美国SpaceX公司星链星座的一颗低轨互联网卫星,于2024年2月15日发射入轨,隶属于星链v1.5平台。该卫星运行在近地轨道,近地点约477公里,远地点约478公里,轨道倾角53.157度,周期约94分钟,由SpaceX自主制造运营,旨在为全球提供高速宽带互联网接入服务,目前仍处于工作状态,是星链巨型星座组网的重要组成部分。

Basic Information
目录编号:
58968
目录名称:
STARLINK-31356
国际标识:
2024-031D
轨道中心:
EARTH
卫星名称:
星链-31356
卫星全名:
星链-31356 (STARLINK-31356 )
卫星状态:
在轨 (已飞行854 天)
发射日期:
2024-02-15 UTC
国别 :
美国 (US)
星等 :
--
Orbit Information
数据来源 国际轨道数据 AOE轨道数据
星历时间 2026-06-18T06:52:37+0800
7小时前
查看轨道信息
2026-06-17T06:00:00+0800
1天前
查看轨道信息
半长轴 6853.335km 6853.352km
偏心率 0.0001575 0.0001336
轨道倾角 53.158° 53.158°
近地点辐角 63.813° 69.508°
升交点赤经 163.124° 167.939°
平近点角 296.303° 337.378°
近地点 474.118km 474.299km
远地点 476.278km 476.131km
周期 94.105分钟 94.105分钟
每日圈数 15.30206 15.302003
Detailed Information
固有亮度:
5
最大亮度:
0.3
卫星平台:
Starlink v2.0 mini
覆盖范围:
全球
运营商:
太空探索技术公司
运营商所在国:
美国
制造商(研发单位):
太空探索技术公司
制造商所在国:
美国
使用方式:
暂无
Satellite Introduction
星链(Starlink)计划是由太空探索技术公司(SpaceX)提出的一个巨型低轨卫星互联网星座项目,计划在2019年至2024年间在太空搭建由约1.2万颗卫星组成的“星链”网络,其中1584颗将部署在地球上空550千米处的近地轨道,并从2020年开始工作。该卫星仍在工作。
2D Orbit Map
3D Orbit Map
Orbit Altitude Analysis Chart
Orbit Inclination Analysis Chart
Orbit Comprehensive Analysis Chart
View Comprehensive Chart